Estherville, IA

7:31 AM CDT on March 25, 2017 (GMT -0500)
Estherville Municipal

Weather History for KEST - September, 2013

Change the Weather History Date:

Monday, September 9, 2013

  Actual Average Record
Temperature  
Mean Temperature 82 °F 63 °F  
Max Temperature 96 °F 76 °F 96 °F (2013)
Min Temperature 67 °F 51 °F 37 °F (2008)
Degree Days  
Heating Degree Days 0 4  
Month to date heating degree days 8 25  
Since 1 July heating degree days 53 57  
Cooling Degree Days 17 2  
Month to date cooling degree days 68 24  
Year to date cooling degree days 662 564  
Growing Degree Days 30 (Base 50)    
Moisture  
Dew Point 68 °F    
Average Humidity 68    
Maximum Humidity 100    
Minimum Humidity 36    
Precipitation  
Precipitation 0.00 in 0.10 in 4.75 in (1964)
Month to date precipitation 0.01 0.90  
Sea Level Pressure  
Sea Level Pressure 29.77 in    
Wind  
Wind Speed 10 mph (South)    
Max Wind Speed 23 mph    
Max Gust Speed 31 mph    
Visibility 6 miles    
Events Fog    
T = Trace of Precipitation, MM = Missing Value Source: NWS Daily Summary

Daily Weather History Graph

Daily Weather History Graph

Search for Another Location

Airport or City:

Trip Planner

Search our weather history database for the weather conditions in past years. The results will help you decide how hot, cold, wet, or windy it might be!

Date:

Astronomy

Sep. 09, 2013 Rise Set
Actual Time 6:52 AM CDT 7:39 PM CDT
Civil Twilight 6:23 AM CDT 8:08 PM CDT
Nautical Twilight 5:48 AM CDT 8:42 PM CDT
Astronomical Twilight 5:12 AM CDT 9:18 PM CDT
Moon 11:23 AM CDT (9/9) 9:47 PM CDT (9/9)
Length of Visible Light 13h 45m
Length of Day
12h 47m
Waxing Crescent, 19% of the Moon is Illuminated
Sep 9
Waxing Crescent
Sep 12
First Quarter
Sep 19
Full
Sep 26
Last Quarter
Oct 4
New

Hourly Weather History & Observations

Time (CDT) Temp. Heat Index Dew Point Humidity Pressure Visibility Wind Dir Wind Speed Gust Speed Precip Events Conditions
12:30 AM 68.0 °F - 66.2 °F 94% 29.87 in 7.0 mi ESE 9.2 mph - N/A   Scattered Clouds
12:52 AM 68.0 °F - 66.9 °F 96% 29.85 in 6.0 mi ESE 8.1 mph - N/A   Mostly Cloudy
1:14 AM 68.0 °F - 66.2 °F 94% 29.86 in 6.0 mi ESE 8.1 mph - N/A   Mostly Cloudy
1:52 AM 66.9 °F - 66.9 °F 100% 29.82 in 5.0 mi ESE 6.9 mph - N/A   Overcast
2:45 AM 66.2 °F - 66.2 °F 100% 29.83 in 4.0 mi ESE 5.8 mph - N/A   Overcast
2:52 AM 66.9 °F - 66.9 °F 100% 29.81 in 4.0 mi SE 5.8 mph - N/A   Overcast
3:52 AM 68.0 °F - 68.0 °F 100% 29.78 in 4.0 mi SE 8.1 mph - N/A   Overcast
4:52 AM 69.1 °F - 69.1 °F 100% 29.77 in 4.0 mi SSE 10.4 mph - N/A   Overcast
5:35 AM 69.8 °F - 69.8 °F 100% 29.79 in 2.5 mi SSE 10.4 mph - N/A   Overcast
5:52 AM 69.1 °F - 69.1 °F 100% 29.77 in 1.0 mi South 11.5 mph - N/A   Overcast
6:00 AM 69.8 °F - 69.8 °F 100% 29.79 in 0.5 mi SSE 11.5 mph - N/A Fog Fog
6:52 AM 68.0 °F - 68.0 °F 100% 29.77 in 0.5 mi South 8.1 mph - N/A Fog Fog
7:52 AM 69.1 °F - 69.1 °F 100% 29.76 in 0.5 mi South 9.2 mph - N/A Fog Fog
8:20 AM 69.8 °F - 69.8 °F 100% 29.78 in 1.2 mi South 11.5 mph - N/A   Overcast
8:35 AM 69.8 °F - 69.8 °F 100% 29.78 in 2.5 mi South 10.4 mph - N/A   Overcast
8:44 AM 69.8 °F - 69.8 °F 100% 29.78 in 3.0 mi South 9.2 mph - N/A   Overcast
8:52 AM 70.0 °F - 70.0 °F 100% 29.76 in 4.0 mi South 6.9 mph - N/A   Mostly Cloudy
9:03 AM 69.8 °F - 69.8 °F 100% 29.78 in 5.0 mi South 6.9 mph - N/A   Scattered Clouds
9:52 AM 77.0 °F - 71.1 °F 82% 29.75 in 8.0 mi South 9.2 mph - N/A   Clear
10:52 AM 82.9 °F 85.4 °F 66.9 °F 58% 29.73 in 10.0 mi SSW 11.5 mph 20.7 mph N/A   Clear
11:52 AM 84.0 °F 86.5 °F 66.9 °F 56% 29.72 in 10.0 mi SSW 12.7 mph 20.7 mph N/A   Clear
12:52 PM 88.0 °F 90.7 °F 66.9 °F 49% 29.71 in 10.0 mi SSW 16.1 mph 20.7 mph N/A   Clear
1:52 PM 91.0 °F 94.3 °F 66.9 °F 45% 29.70 in 10.0 mi SSW 12.7 mph 20.7 mph N/A   Clear
2:52 PM 93.9 °F 97.5 °F 66.9 °F 41% 29.68 in 10.0 mi SSW 18.4 mph 24.2 mph N/A   Clear
3:52 PM 95.0 °F 97.4 °F 64.9 °F 37% 29.67 in 10.0 mi SSW 18.4 mph 29.9 mph N/A   Clear
4:52 PM 93.9 °F 97.0 °F 66.0 °F 40% 29.68 in 10.0 mi SW 18.4 mph 26.5 mph N/A   Clear
5:52 PM 91.9 °F 95.4 °F 66.9 °F 44% 29.70 in 10.0 mi SW 13.8 mph 23.0 mph N/A   Clear
6:52 PM 89.1 °F 92.9 °F 68.0 °F 50% 29.71 in 10.0 mi SW 10.4 mph - N/A   Clear
7:52 PM 82.0 °F 85.5 °F 69.1 °F 65% 29.73 in 10.0 mi SW 5.8 mph - N/A   Clear
8:52 PM 78.1 °F - 70.0 °F 76% 29.77 in 10.0 mi SSW 5.8 mph - N/A   Clear
9:52 PM 75.0 °F - 68.0 °F 79% 29.78 in 10.0 mi SSW 5.8 mph - N/A   Clear
10:52 PM 78.1 °F - 69.1 °F 74% 29.79 in 10.0 mi NNW 8.1 mph - N/A   Clear
11:52 PM 73.0 °F - 69.1 °F 87% 29.80 in 10.0 mi NW 6.9 mph - N/A   Clear